{"data":{"norad_id":63567,"epoch":"2026-09-20T09:01:36.502752Z","epoch_age_seconds":166201,"freshness":"FRESH","line1":"1 63567U 25075V   26263.37611693  .00015067  00000+0  55574-3 0  9998","line2":"2 63567  42.9989 250.9904 0001162 258.9115 101.1606 15.27590962 81707","mean_motion":15.27590962,"eccentricity":0.0001162,"inclination_deg":42.9989,"raan_deg":250.9904,"arg_perigee_deg":258.9115,"mean_anomaly_deg":101.1606,"bstar":0.00055574,"rev_number":8170,"period_min":94.266072255015,"perigee_km":482.21900605417,"apogee_km":483.8135380746,"semimajor_km":6861.1532720644,"source":"CELESTRAK","updated_at":"2026-09-21T09:00:35.023350Z"}}